Location: Dodge City Community College Clyde Tombaugh Astronomy Center
(37.7756°N, 100.0412°W)
Time: 11:43:45
(UTC+00:00)

X-37B - Pass Details

Date: 05 December 2022
Orbit: 277 x 277 km, 45.0° (Epoch: 01 November)

Event Time Altitude Azimuth Distance (km) Brightness Sun altitude
Rises 00:57:28 0° 216° (SW) 1,900 4.9 -18.6°
Reaches altitude 10° 00:59:34 10° 200° (SSW) 1,092 3.3 -19.0°
Enters shadow 01:00:20 15° 186° (S) 853 2.5 -19.1°
